QPF
0.01 0.02 0.02 0.02 0.02 0.03 0.04 0.04 0.03 0.03 0.03 0.02 0.02 0.01 0.02 0.02 0.02 0.02 0.03 0.02 0.03 0.06 0.12 0.15 0.16 0.17 0.16 0.13 0.11 0.09 0.07 0.07 0.05 0.04 0.04 0.03 0.03 0.03 0.04 0.04 0.04 0.03 0.03
0.02 0.03 0.04 0.06 0.07 0.08 0.07 0.07 0.07 0.05 0.04 0.05 0.04 0.03 0.03 0.03 0.04 0.05 0.05 0.06 0.03 0.04 0.09 0.15 0.20 0.24 0.24 0.22 0.18 0.14 0.11 0.09 0.08 0.06 0.05 0.04 0.04 0.04 0.04 0.04 0.03 0.03 0.03
0.02 0.04 0.06 0.08 0.10 0.10 0.09 0.09 0.08 0.07 0.07 0.07 0.06 0.05 0.06 0.06 0.05 0.06 0.06 0.09 0.07 0.05 0.06 0.10 0.15 0.20 0.24 0.26 0.24 0.20 0.17 0.14 0.12 0.10 0.08 0.07 0.06 0.05 0.04 0.04 0.04 0.03 0.03
0.04 0.06 0.07 0.08 0.09 0.10 0.11 0.11 0.10 0.09 0.09 0.08 0.06 0.06 0.06 0.08 0.06 0.05 0.04 0.06 0.08 0.07 0.06 0.08 0.10 0.13 0.18 0.23 0.26 0.27 0.25 0.22 0.18 0.15 0.12 0.10 0.08 0.08 0.06 0.05 0.05 0.05 0.04
0.08 0.09 0.11 0.11 0.12 0.15 0.14 0.14 0.13 0.10 0.10 0.08 0.06 0.06 0.05 0.07 0.07 0.04 0.04 0.04 0.05 0.06 0.04 0.05 0.06 0.08 0.12 0.17 0.20 0.23 0.25 0.24 0.23 0.21 0.18 0.16 0.13 0.11 0.10 0.09 0.08 0.08 0.07
0.15 0.16 0.16 0.16 0.16 0.16 0.14 0.14 0.13 0.10 0.08 0.08 0.06 0.04 0.04 0.04 0.04 0.03 0.02 0.03 0.03 0.03 0.03 0.03 0.03 0.04 0.06 0.08 0.10 0.14 0.19 0.24 0.27 0.26 0.24 0.21 0.18 0.17 0.15 0.13 0.11 0.10 0.09
0.22 0.20 0.19 0.16 0.15 0.16 0.17 0.15 0.12 0.09 0.06 0.06 0.08 0.07 0.05 0.04 0.03 0.02 0.02 0.02 0.02 0.02 0.02 0.02 0.02 0.03 0.04 0.05 0.06 0.08 0.13 0.18 0.22 0.26 0.26 0.24 0.23 0.24 0.24 0.22 0.18 0.15 0.12
0.24 0.24 0.21 0.19 0.16 0.16 0.16 0.14 0.11 0.09 0.07 0.07 0.09 0.10 0.08 0.06 0.04 0.02 0.02 0.02 0.02 0.01 0.01 0.02 0.02 0.02 0.02 0.03 0.06 0.08 0.10 0.14 0.20 0.22 0.21 0.22 0.24 0.26 0.26 0.24 0.22 0.20 0.18
0.24 0.22 0.22 0.20 0.17 0.14 0.12 0.10 0.09 0.10 0.09 0.07 0.08 0.09 0.10 0.08 0.06 0.04 0.02 0.01 0.01 0.01 0.01 0.01 0.01 0.02 0.02 0.04 0.05 0.07 0.08 0.10 0.12 0.13 0.15 0.19 0.24 0.27 0.29 0.29 0.29 0.29 0.27
0.25 0.23 0.22 0.21 0.19 0.16 0.12 0.09 0.06 0.06 0.06 0.06 0.05 0.04 0.05 0.05 0.05 0.05 0.03 0.01 0.01 0.01 0.01 0.01 0.01 0.02 0.03 0.04 0.05 0.06 0.06 0.07 0.08 0.09 0.12 0.14 0.16 0.18 0.21 0.23 0.25 0.28 0.29
0.22 0.20 0.20 0.18 0.15 0.12 0.10 0.07 0.05 0.04 0.04 0.04 0.04 0.03 0.03 0.03 0.03 0.04 0.03 0.02 0.02 0.03 0.03 0.02 0.02 0.01 0.02 0.03 0.04 0.05 0.06 0.06 0.06 0.07 0.08 0.09 0.10 0.11 0.13 0.15 0.17 0.20 0.22
0.17 0.14 0.13 0.13 0.11 0.09 0.07 0.05 0.04 0.04 0.04 0.04 0.04 0.04 0.04 0.04 0.04 0.05 0.04 0.03 0.03 0.03 0.02 0.02 0.01 0.01 0.02 0.02 0.03 0.04 0.03 0.03 0.04 0.04 0.05 0.06 0.06 0.07 0.09 0.11 0.13 0.15 0.16
0.15 0.12 0.11 0.10 0.10 0.09 0.07 0.06 0.05 0.04 0.04 0.03 0.02 0.02 0.02 0.02 0.02 0.02 0.02 0.01 0.01 0.01 0.01 0.01 0.01 0.01 0.01 0.02 0.02 0.03 0.02 0.02 0.02 0.02 0.03 0.03 0.04 0.04 0.05 0.06 0.08 0.10 0.11
0.15 0.14 0.10 0.08 0.07 0.06 0.05 0.04 0.04 0.03 0.02 0.02 0.02 0.02 0.02 0.01 0.01 0.01 0.01 0.01 0.01 0.01 0.01 0.01 0.01 0.01 0.01 0.01 0.01 0.02 0.01 0.01 0.01 0.01 0.02 0.02 0.03 0.03 0.04 0.04 0.05 0.06 0.07
0.12 0.11 0.09 0.07 0.05 0.04 0.04 0.03 0.03 0.02 0.02 0.01 0.01 0.01 0.01 0.01 0.00 0.00 0.00 0.00 0.00 0.00 0.01 0.01 0.01 0.01 0.01 0.01 0.01 0.01 0.00 0.01 0.01 0.01 0.01 0.01 0.02 0.02 0.02 0.03 0.03 0.04 0.04
0.07 0.06 0.05 0.04 0.03 0.03 0.03 0.02 0.02 0.02 0.01 0.01 0.00 0.00 0.00 0.00 0.00 0.00 0.00 0.00 0.00 0.00 0.00 0.00 0.00 0.01 0.01 0.01 0.01 0.01 0.01 0.01 0.01 0.00 0.00 0.00 0.01 0.01 0.01 0.01 0.01 0.01 0.02
0.07 0.06 0.05 0.04 0.03 0.02 0.02 0.02 0.02 0.01 0.01 0.01 0.00 0.00 0.00 0.00 0.00 0.00 0.00 0.00 0.00 0.00 0.00 0.00 0.01 0.01 0.01 0.00 0.00 0.00 0.00 0.00 0.00 0.00 0.00 0.00 0.00 0.00 0.00 0.00 0.00 0.01 0.01
0.05 0.04 0.03 0.02 0.01 0.01 0.01 0.01 0.01 0.00 0.00 0.00 0.00 0.00 0.00 0.00 0.00 0.00 0.00 0.00 0.00 0.00 0.00 0.00 0.00 0.00 0.00 0.00 0.00 0.00 0.00 0.00 0.00 0.00 0.00 0.00 0.00 0.00 0.00 0.00 0.00 0.00 0.00
0.04 0.02 0.02 0.01 0.01 0.00 0.00 0.00 0.00 0.00 0.00 0.00 0.00 0.00 0.00 0.00 0.00 0.00 0.00 0.00 0.00 0.00 0.00 0.00 0.00 0.00 0.00 0.00 0.00 0.00 0.00 0.00 0.00 0.00 0.00 0.00 0.00 0.00 0.00 0.00 0.00 0.00 0.00
0.03 0.02 0.01 0.01 0.01 0.00 0.00 0.00 0.00 0.00 0.00 0.00 0.00 0.00 0.00 0.00 0.00 0.00 0.00 0.00 0.00 0.00 0.00 0.00 0.00 0.00 0.00 0.00 0.00 0.00 0.00 0.00 0.00 0.00 0.00 0.00 0.00 0.00 0.00 0.00 0.00 0.00 0.00
0.02 0.02 0.01 0.01 0.00 0.00 0.00 0.00 0.00 0.00 0.00 0.00 0.00 0.00 0.00 0.00 0.00 0.00 0.00 0.00 0.00 0.00 0.00 0.00 0.00 0.00 0.01 0.01 0.01 0.00 0.00 0.01 0.01 0.01 0.01 0.01 0.01 0.01 0.02 0.01 0.00 0.00 0.00
0.01 0.01 0.00 0.00 0.00 0.00 0.00 0.00 0.00 0.00 0.00 0.00 0.00 0.00 0.00 0.00 0.00 0.00 0.00 0.00 0.00 0.00 0.00 0.00 0.01 0.01 0.01 0.02 0.01 0.01 0.01 0.01 0.01 0.01 0.01 0.01 0.01 0.02 0.02 0.01 0.00 0.00 0.00
0.00 0.00 0.00 0.00 0.00 0.00 0.00 0.00 0.00 0.00 0.00 0.00 0.00 0.00 0.00 0.00 0.00 0.00 0.00 0.00 0.00 0.00 0.00 0.00 0.01 0.01 0.01 0.02 0.01 0.01 0.02 0.02 0.02 0.01 0.01 0.02 0.02 0.03 0.02 0.00 0.00 0.00 0.00
0.00 0.00 0.00 0.00 0.00 0.00 0.00 0.00 0.00 0.00 0.00 0.00 0.00 0.00 0.00 0.00 0.00 0.00 0.00 0.00 0.00 0.00 0.00 0.00 0.01 0.01 0.00 0.01 0.01 0.01 0.01 0.01 0.03 0.03 0.02 0.03 0.03 0.03 0.01 0.02 0.00 0.00 0.00
0.00 0.00 0.00 0.00 0.00 0.00 0.00 0.00 0.00 0.00 0.00 0.00 0.00 0.00 0.00 0.00 0.00 0.00 0.00 0.01 0.01 0.01 0.00 0.00 0.00 0.00 0.00 0.00 0.00 0.01 0.02 0.02 0.04 0.05 0.03 0.03 0.04 0.03 0.03 0.03 0.01 0.00 0.00
0.01 0.00 0.00 0.00 0.00 0.00 0.00 0.00 0.00 0.00 0.00 0.00 0.00 0.00 0.00 0.00 0.00 0.00 0.00 0.01 0.01 0.01 0.01 0.01 0.01 0.01 0.01 0.01 0.00 0.01 0.02 0.03 0.04 0.05 0.04 0.03 0.05 0.03 0.04 0.03 0.02 0.02 0.02
MSLP
1016.00 1016.35 1016.69 1017.00 1017.28 1017.55 1017.79 1017.99 1018.15 1018.27 1018.33 1018.35 1018.33 1018.29 1018.26 1018.26 1018.31 1018.41 1018.55 1018.72 1018.87 1018.99 1019.04 1019.03 1018.95 1018.82 1018.67 1018.53 1018.44 1018.39 1018.40 1018.47 1018.56 1018.66 1018.76 1018.84 1018.91 1018.97 1019.02 1019.08 1019.16 1019.25 1019.36
1015.71 1016.09 1016.45 1016.80 1017.12 1017.43 1017.70 1017.95 1018.16 1018.34 1018.48 1018.58 1018.64 1018.68 1018.71 1018.75 1018.81 1018.89 1018.99 1019.09 1019.17 1019.21 1019.19 1019.11 1018.97 1018.80 1018.62 1018.45 1018.32 1018.26 1018.24 1018.29 1018.36 1018.45 1018.54 1018.61 1018.67 1018.71 1018.75 1018.80 1018.85 1018.93 1019.02
1015.59 1016.00 1016.40 1016.78 1017.13 1017.46 1017.77 1018.05 1018.31 1018.54 1018.75 1018.92 1019.07 1019.18 1019.27 1019.35 1019.42 1019.48 1019.54 1019.58 1019.60 1019.57 1019.49 1019.36 1019.18 1018.98 1018.77 1018.58 1018.44 1018.35 1018.31 1018.33 1018.38 1018.45 1018.51 1018.57 1018.61 1018.63 1018.65 1018.68 1018.72 1018.77 1018.83
1015.66 1016.10 1016.52 1016.92 1017.30 1017.64 1017.95 1018.25 1018.53 1018.80 1019.06 1019.29 1019.51 1019.69 1019.84 1019.96 1020.05 1020.11 1020.14 1020.15 1020.12 1020.05 1019.94 1019.78 1019.59 1019.37 1019.15 1018.96 1018.80 1018.69 1018.63 1018.62 1018.64 1018.68 1018.72 1018.75 1018.76 1018.76 1018.76 1018.76 1018.78 1018.80 1018.83
1015.92 1016.37 1016.82 1017.23 1017.59 1017.92 1018.22 1018.50 1018.77 1019.04 1019.32 1019.60 1019.86 1020.10 1020.30 1020.47 1020.59 1020.67 1020.71 1020.72 1020.68 1020.60 1020.48 1020.33 1020.15 1019.95 1019.74 1019.55 1019.40 1019.28 1019.20 1019.16 1019.15 1019.15 1019.15 1019.14 1019.12 1019.09 1019.07 1019.05 1019.04 1019.04 1019.04
1016.33 1016.80 1017.26 1017.66 1018.01 1018.29 1018.54 1018.77 1019.00 1019.24 1019.51 1019.79 1020.08 1020.36 1020.61 1020.83 1021.00 1021.11 1021.19 1021.22 1021.20 1021.16 1021.07 1020.96 1020.81 1020.65 1020.48 1020.32 1020.17 1020.05 1019.96 1019.89 1019.85 1019.80 1019.76 1019.71 1019.65 1019.58 1019.52 1019.48 1019.45 1019.42 1019.40
1016.86 1017.36 1017.82 1018.21 1018.51 1018.74 1018.91 1019.06 1019.21 1019.40 1019.62 1019.89 1020.18 1020.48 1020.77 1021.02 1021.24 1021.41 1021.53 1021.60 1021.65 1021.65 1021.63 1021.58 1021.50 1021.40 1021.28 1021.16 1021.04 1020.93 1020.83 1020.75 1020.66 1020.58 1020.48 1020.38 1020.27 1020.16 1020.06 1019.97 1019.91 1019.87 1019.82
1017.51 1018.03 1018.49 1018.85 1019.09 1019.25 1019.33 1019.39 1019.45 1019.55 1019.72 1019.94 1020.22 1020.52 1020.82 1021.10 1021.36 1021.57 1021.74 1021.87 1021.97 1022.05 1022.10 1022.13 1022.13 1022.10 1022.05 1021.99 1021.91 1021.82 1021.72 1021.62 1021.50 1021.37 1021.23 1021.07 1020.90 1020.73 1020.57 1020.44 1020.34 1020.26 1020.19
1018.24 1018.79 1019.24 1019.56 1019.76 1019.83 1019.83 1019.79 1019.77 1019.79 1019.88 1020.05 1020.28 1020.56 1020.86 1021.15 1021.41 1021.65 1021.85 1022.03 1022.19 1022.33 1022.45 1022.55 1022.63 1022.69 1022.71 1022.70 1022.67 1022.61 1022.52 1022.40 1022.26 1022.09 1021.90 1021.68 1021.44 1021.21 1020.99 1020.80 1020.65 1020.52 1020.42
1019.03 1019.60 1020.04 1020.33 1020.47 1020.48 1020.41 1020.29 1020.19 1020.14 1020.17 1020.28 1020.47 1020.71 1020.97 1021.24 1021.49 1021.72 1021.93 1022.12 1022.31 1022.49 1022.66 1022.83 1022.97 1023.10 1023.18 1023.23 1023.24 1023.21 1023.14 1023.02 1022.86 1022.66 1022.42 1022.14 1021.85 1021.55 1021.26 1021.00 1020.78 1020.60 1020.46
1019.86 1020.42 1020.85 1021.10 1021.20 1021.16 1021.03 1020.87 1020.72 1020.62 1020.61 1020.67 1020.82 1021.01 1021.23 1021.45 1021.66 1021.85 1022.03 1022.20 1022.38 1022.57 1022.76 1022.96 1023.15 1023.32 1023.46 1023.55 1023.60 1023.60 1023.54 1023.42 1023.25 1023.03 1022.75 1022.43 1022.09 1021.72 1021.37 1021.04 1020.75 1020.51 1020.32
1020.66 1021.21 1021.61 1021.83 1021.89 1021.83 1021.67 1021.49 1021.32 1021.21 1021.18 1021.22 1021.33 1021.47 1021.64 1021.80 1021.94 1022.07 1022.19 1022.31 1022.45 1022.61 1022.79 1022.99 1023.19 1023.38 1023.54 1023.67 1023.74 1023.75 1023.71 1023.60 1023.43 1023.19 1022.90 1022.55 1022.17 1021.77 1021.36 1020.97 1020.62 1020.32 1020.06
1021.41 1021.92 1022.27 1022.46 1022.50 1022.42 1022.27 1022.10 1021.96 1021.86 1021.84 1021.88 1021.96 1022.07 1022.19 1022.28 1022.35 1022.40 1022.44 1022.48 1022.55 1022.66 1022.79 1022.96 1023.14 1023.32 1023.49 1023.61 1023.69 1023.71 1023.67 1023.57 1023.40 1023.17 1022.88 1022.53 1022.14 1021.72 1021.29 1020.87 1020.47 1020.11 1019.80
1022.06 1022.52 1022.82 1022.96 1022.99 1022.91 1022.79 1022.66 1022.55 1022.50 1022.51 1022.57 1022.66 1022.75 1022.82 1022.86 1022.86 1022.83 1022.78 1022.74 1022.73 1022.75 1022.83 1022.94 1023.07 1023.22 1023.35 1023.45 1023.51 1023.52 1023.48 1023.38 1023.22 1023.00 1022.73 1022.42 1022.05 1021.65 1021.23 1020.80 1020.39 1020.00 1019.65
1022.61 1022.99 1023.24 1023.35 1023.36 1023.30 1023.21 1023.13 1023.08 1023.09 1023.15 1023.24 1023.35 1023.44 1023.49 1023.48 1023.43 1023.32 1023.20 1023.08 1022.98 1022.93 1022.92 1022.96 1023.03 1023.12 1023.20 1023.26 1023.28 1023.27 1023.20 1023.10 1022.95 1022.75 1022.52 1022.24 1021.93 1021.59 1021.22 1020.83 1020.43 1020.05 1019.68
1023.08 1023.38 1023.57 1023.65 1023.65 1023.61 1023.56 1023.53 1023.55 1023.61 1023.72 1023.86 1023.99 1024.08 1024.12 1024.10 1024.00 1023.85 1023.67 1023.48 1023.31 1023.18 1023.10 1023.07 1023.06 1023.08 1023.09 1023.09 1023.06 1023.00 1022.90 1022.78 1022.63 1022.46 1022.27 1022.05 1021.81 1021.55 1021.26 1020.95 1020.61 1020.27 1019.91
1023.48 1023.72 1023.86 1023.93 1023.93 1023.91 1023.89 1023.90 1023.96 1024.07 1024.22 1024.39 1024.54 1024.65 1024.70 1024.66 1024.55 1024.38 1024.16 1023.92 1023.70 1023.52 1023.36 1023.26 1023.18 1023.12 1023.06 1022.99 1022.89 1022.77 1022.63 1022.48 1022.32 1022.16 1022.01 1021.85 1021.69 1021.52 1021.33 1021.12 1020.88 1020.60 1020.30
1023.87 1024.07 1024.18 1024.23 1024.24 1024.24 1024.24 1024.28 1024.37 1024.50 1024.67 1024.85 1025.02 1025.14 1025.19 1025.16 1025.05 1024.86 1024.63 1024.37 1024.12 1023.88 1023.68 1023.51 1023.37 1023.23 1023.10 1022.96 1022.79 1022.61 1022.42 1022.23 1022.04 1021.88 1021.75 1021.64 1021.55 1021.47 1021.39 1021.28 1021.14 1020.96 1020.74
1024.26 1024.44 1024.55 1024.61 1024.63 1024.64 1024.66 1024.70 1024.79 1024.92 1025.08 1025.26 1025.42 1025.54 1025.59 1025.57 1025.47 1025.29 1025.05 1024.79 1024.52 1024.26 1024.01 1023.80 1023.60 1023.41 1023.21 1023.00 1022.77 1022.53 1022.28 1022.03 1021.82 1021.64 1021.51 1021.42 1021.38 1021.37 1021.37 1021.36 1021.33 1021.25 1021.11
1024.66 1024.84 1024.97 1025.05 1025.09 1025.11 1025.13 1025.16 1025.23 1025.34 1025.47 1025.62 1025.76 1025.87 1025.92 1025.90 1025.80 1025.63 1025.41 1025.15 1024.87 1024.59 1024.32 1024.07 1023.83 1023.59 1023.35 1023.08 1022.80 1022.51 1022.21 1021.91 1021.65 1021.44 1021.29 1021.20 1021.17 1021.20 1021.25 1021.32 1021.37 1021.38 1021.33
1025.04 1025.25 1025.41 1025.52 1025.58 1025.61 1025.62 1025.64 1025.67 1025.73 1025.83 1025.93 1026.04 1026.12 1026.16 1026.14 1026.06 1025.90 1025.68 1025.43 1025.15 1024.86 1024.58 1024.30 1024.04 1023.77 1023.49 1023.19 1022.88 1022.54 1022.20 1021.86 1021.56 1021.30 1021.11 1020.99 1020.95 1020.97 1021.04 1021.15 1021.24 1021.32 1021.33
1025.36 1025.61 1025.82 1025.96 1026.05 1026.08 1026.08 1026.07 1026.07 1026.09 1026.13 1026.19 1026.27 1026.32 1026.35 1026.32 1026.24 1026.09 1025.88 1025.63 1025.35 1025.06 1024.76 1024.47 1024.19 1023.90 1023.61 1023.30 1022.96 1022.61 1022.24 1021.88 1021.53 1021.23 1020.99 1020.82 1020.73 1020.72 1020.78 1020.87 1020.98 1021.08 1021.14
1025.59 1025.89 1026.14 1026.32 1026.43 1026.47 1026.47 1026.44 1026.40 1026.38 1026.38 1026.40 1026.44 1026.48 1026.49 1026.46 1026.37 1026.23 1026.02 1025.77 1025.48 1025.18 1024.87 1024.57 1024.27 1023.98 1023.69 1023.38 1023.05 1022.69 1022.32 1021.94 1021.57 1021.23 1020.94 1020.72 1020.57 1020.51 1020.51 1020.56 1020.65 1020.73 1020.79
1025.74 1026.07 1026.36 1026.57 1026.70 1026.75 1026.75 1026.71 1026.65 1026.60 1026.58 1026.58 1026.59 1026.61 1026.61 1026.57 1026.48 1026.33 1026.12 1025.86 1025.56 1025.24 1024.92 1024.61 1024.30 1024.01 1023.72 1023.42 1023.11 1022.77 1022.41 1022.03 1021.65 1021.29 1020.97 1020.69 1020.49 1020.36 1020.29 1020.28 1020.31 1020.35 1020.38
1025.81 1026.17 1026.48 1026.71 1026.86 1026.93 1026.94 1026.90 1026.84 1026.78 1026.74 1026.72 1026.73 1026.73 1026.73 1026.68 1026.59 1026.43 1026.20 1025.93 1025.61 1025.27 1024.93 1024.59 1024.28 1023.99 1023.71 1023.43 1023.14 1022.83 1022.49 1022.13 1021.76 1021.39 1021.05 1020.74 1020.48 1020.29 1020.16 1020.08 1020.03 1020.00 1019.97
1025.86 1026.23 1026.55 1026.80 1026.97 1027.06 1027.08 1027.05 1027.00 1026.94 1026.90 1026.88 1026.88 1026.88 1026.86 1026.80 1026.69 1026.52 1026.28 1025.98 1025.63 1025.27 1024.90 1024.55 1024.22 1023.92 1023.65 1023.38 1023.11 1022.83 1022.53 1022.20 1021.85 1021.49 1021.14 1020.82 1020.53 1020.29 1020.10 1019.95 1019.83 1019.73 1019.63
Thickness
5734 5734 5732 5730 5731 5731 5729 5728 5729 5727 5727 5727 5727 5728 5727 5727 5726 5725 5724 5719 5716 5714 5712 5711 5710 5707 5705 5703 5701 5700 5698 5697 5696 5694 5693 5691 5690 5688 5687 5685 5684 5683 5681
5732 5730 5728 5726 5727 5727 5726 5725 5725 5723 5723 5724 5724 5723 5723 5723 5721 5719 5719 5716 5713 5711 5709 5707 5706 5705 5703 5701 5699 5697 5695 5694 5692 5691 5689 5687 5686 5684 5682 5681 5679 5678 5676
5728 5726 5727 5724 5724 5723 5722 5720 5720 5720 5720 5720 5719 5719 5718 5716 5716 5714 5713 5711 5710 5706 5704 5702 5702 5700 5699 5698 5696 5694 5692 5690 5689 5686 5684 5682 5681 5679 5677 5676 5674 5672 5671
5723 5722 5723 5722 5720 5719 5718 5717 5717 5716 5715 5715 5714 5713 5712 5709 5708 5707 5707 5705 5703 5701 5698 5696 5695 5694 5694 5693 5691 5690 5688 5686 5684 5681 5679 5677 5675 5673 5672 5670 5668 5666 5664
5718 5718 5718 5717 5716 5715 5714 5714 5713 5712 5709 5708 5707 5706 5705 5703 5701 5700 5698 5696 5694 5692 5691 5688 5687 5686 5685 5685 5684 5682 5681 5679 5677 5674 5672 5671 5669 5667 5665 5663 5660 5658 5656
5714 5714 5713 5711 5711 5711 5709 5708 5706 5705 5703 5702 5702 5700 5698 5696 5694 5692 5691 5689 5686 5684 5682 5681 5679 5677 5675 5674 5674 5673 5671 5669 5667 5665 5664 5662 5660 5658 5656 5654 5652 5650 5647
5708 5708 5706 5705 5705 5704 5703 5702 5700 5698 5697 5697 5695 5691 5689 5688 5686 5683 5681 5679 5677 5675 5673 5671 5670 5668 5666 5663 5662 5661 5660 5658 5656 5655 5653 5651 5649 5647 5646 5645 5642 5640 5637
5701 5700 5699 5698 5697 5696 5694 5693 5693 5693 5692 5690 5690 5686 5680 5677 5675 5673 5671 5668 5666 5665 5663 5661 5658 5656 5654 5652 5649 5648 5647 5646 5644 5643 5641 5639 5637 5635 5633 5632 5630 5627 5625
5692 5692 5690 5690 5688 5688 5687 5685 5685 5685 5684 5682 5682 5682 5678 5673 5669 5662 5659 5657 5655 5654 5652 5648 5646 5644 5642 5640 5638 5636 5634 5632 5631 5630 5628 5626 5624 5622 5620 5619 5617 5614 5612
5681 5680 5680 5679 5678 5678 5677 5677 5677 5678 5677 5675 5673 5672 5671 5671 5666 5658 5651 5647 5644 5641 5639 5637 5634 5631 5629 5627 5624 5622 5620 5619 5617 5615 5614 5612 5610 5608 5606 5605 5603 5600 5597
5670 5669 5668 5668 5668 5667 5667 5667 5667 5668 5668 5667 5665 5663 5661 5659 5658 5654 5645 5638 5634 5630 5627 5625 5623 5620 5617 5615 5613 5609 5606 5604 5602 5600 5599 5597 5594 5592 5591 5589 5588 5585 5583
5659 5658 5656 5656 5655 5656 5655 5655 5655 5655 5654 5653 5652 5651 5651 5649 5647 5644 5638 5630 5626 5620 5617 5614 5612 5609 5606 5604 5600 5595 5592 5590 5588 5586 5584 5582 5579 5577 5575 5573 5571 5569 5567
5649 5646 5644 5645 5645 5644 5643 5642 5642 5642 5641 5640 5639 5638 5638 5636 5634 5632 5629 5624 5618 5613 5607 5605 5601 5598 5595 5592 5587 5582 5580 5577 5574 5572 5569 5566 5563 5560 5558 5557 5554 5552 5550
5638 5635 5634 5634 5634 5633 5632 5631 5631 5630 5628 5627 5626 5625 5624 5623 5622 5621 5618 5616 5612 5607 5600 5594 5591 5587 5583 5580 5574 5571 5570 5565 5561 5558 5554 5551 5548 5545 5542 5540 5538 5535 5533
5627 5625 5624 5624 5622 5621 5620 5620 5618 5617 5616 5616 5615 5613 5612 5609 5608 5607 5605 5604 5602 5599 5593 5584 5580 5575 5570 5567 5562 5560 5557 5552 5548 5545 5541 5537 5534 5531 5528 5525 5522 5520 5517
5615 5615 5614 5612 5611 5610 5609 5609 5608 5606 5605 5602 5600 5598 5598 5597 5595 5593 5592 5590 5588 5586 5581 5575 5568 5563 5557 5556 5551 5548 5546 5542 5538 5534 5529 5525 5522 5519 5515 5512 5509 5506 5503
5604 5604 5602 5601 5600 5599 5598 5597 5596 5595 5593 5590 5588 5586 5583 5581 5581 5580 5578 5576 5573 5570 5567 5563 5558 5553 5546 5543 5541 5538 5536 5533 5532 5524 5519 5515 5512 5508 5504 5500 5497 5494 5491
5592 5592 5592 5591 5590 5588 5587 5586 5585 5583 5581 5579 5576 5574 5571 5569 5566 5565 5563 5561 5558 5553 5553 5548 5546 5544 5538 5534 5530 5527 5527 5525 5521 5516 5511 5506 5502 5498 5494 5490 5486 5483 5480
5581 5581 5581 5580 5578 5577 5575 5574 5573 5571 5569 5566 5564 5561 5558 5556 5554 5552 5550 5548 5547 5544 5540 5539 5537 5533 5530 5526 5522 5522 5520 5515 5514 5511 5505 5500 5495 5491 5486 5482 5478 5475 5471
5570 5569 5569 5568 5567 5566 5565 5563 5561 5559 5557 5554 5551 5548 5546 5543 5541 5539 5538 5536 5534 5533 5531 5531 5529 5526 5523 5519 5516 5515 5513 5510 5508 5504 5500 5495 5490 5486 5481 5477 5472 5468 5464
5559 5558 5558 5557 5556 5554 5552 5551 5550 5548 5545 5542 5540 5537 5532 5528 5523 5524 5525 5524 5524 5524 5525 5523 5521 5519 5514 5510 5508 5505 5504 5502 5501 5497 5494 5492 5488 5484 5478 5472 5467 5461 5458
5548 5547 5547 5546 5544 5541 5535 5535 5536 5537 5534 5532 5530 5527 5524 5520 5515 5512 5510 5509 5507 5510 5511 5511 5512 5507 5504 5502 5498 5497 5496 5495 5494 5491 5488 5487 5485 5480 5476 5471 5462 5457 5453
5537 5536 5536 5535 5531 5525 5522 5522 5522 5526 5524 5521 5519 5518 5517 5513 5510 5509 5506 5502 5501 5498 5495 5496 5499 5496 5495 5493 5489 5491 5489 5488 5486 5485 5483 5483 5481 5478 5473 5467 5460 5455 5451
5527 5526 5525 5524 5520 5514 5511 5511 5511 5515 5515 5512 5510 5508 5507 5504 5501 5498 5501 5502 5500 5498 5493 5491 5490 5489 5488 5484 5483 5483 5482 5483 5484 5481 5478 5479 5478 5476 5473 5466 5458 5454 5450
5518 5517 5516 5514 5511 5505 5502 5502 5501 5509 5508 5505 5503 5499 5498 5497 5489 5488 5493 5495 5495 5493 5488 5485 5483 5482 5479 5478 5476 5479 5483 5484 5484 5482 5478 5477 5475 5474 5472 5467 5461 5455 5451
5511 5510 5507 5505 5503 5499 5493 5494 5494 5504 5502 5501 5498 5494 5487 5486 5483 5482 5487 5489 5488 5487 5486 5486 5483 5481 5480 5479 5475 5474 5478 5480 5480 5478 5476 5473 5472 5471 5470 5467 5463 5458 5453